Starlink 32757

operational
NORAD ID: 62492 Int'l Des: 2025-003 Owner: SPXS Country: US Constellation: starlink
LEOCIRCULAR

关于 Starlink 32757

正在加载描述...

实时位置

正在加载3D地球...

即将过境

高度历史

Altitude vs Time

uPlot chart will show altitude changes over time

两行轨道根数

1 62492U 25003F 25301.31096236 .00048533 00000-0 17593-2 0 9994
2 62492 43.0046 316.7787 0000252 283.3863 76.6960 15.27623282 46308
Epoch: Oct 28, 2025 • Age: 41 hours

当前状态

高度 492.5 km
速度 7.62 km/s
星下点 -35.46°S, 140.87°W
发射日期 Jan 6, 2025
运行时间 0.8 years
类型 internet

技术详情

分类 Payload
质量 730.00 kg
干质量 700.00 kg
总质量 730.00 kg
长度 0.30 m
直径 4.10 m
跨度 29.00 m
形状 Box + pan
制造商 SPXS
平台类型 Starlink V2M
阶段状态 In Orbit
所有者/国家 SPXS/US

大型星座

Loading constellations...